Simultaneous Nadir Overpasses (SNOs) Predictions

Prediction of SNOs between GOES-17 and NOAA-20 Satellite Orbit:

Table of predicted SNOs for the next 14.0 days since TLE Epoch: 4/16/2022
Index Date Time (GOES-17) GOES-17 Lat,Lon NOAA-20 Lat,Lon Distance(km) Time Diff (sec)
1 04/16/2022 10:40:19 -0.03,-137.18 0.20,-138.34 131.34 80
2 04/17/2022 10:18:54 -0.04,-137.18 -0.79,-133.81 384.45 80
3 04/18/2022 22:43:31 0.03,-137.16 -0.38,-139.11 221.42 80
4 04/19/2022 22:22:07 0.04,-137.15 0.61,-134.58 293.80 80
5 04/21/2022 10:46:35 -0.03,-137.14 0.59,-139.84 308.36 80
6 04/22/2022 10:25:11 -0.03,-137.12 -0.41,-135.30 206.36 80
7 04/23/2022 22:47:08 0.02,-137.09 -0.76,-140.61 401.00 80
8 04/24/2022 22:31:04 0.02,-137.07 0.23,-136.07 113.62 80
9 04/26/2022 10:52:52 -0.01,-137.05 0.96,-141.34 489.01 80
10 04/27/2022 10:31:27 -0.01,-137.03 -0.04,-136.80 25.64 80
11 04/29/2022 22:34:40 0.01,-136.98 -0.13,-137.58 68.06 80
